RH
69 68 68 68 68 69 69 70 71 71 71 70 69 68 68 69 68 68 67 66 63 59 54 50 44 38 35 33 32 32 33 33 34 37 41 44 45 46 47 48 48 47
67 67 68 70 70 71 72 72 73 73 72 71 70 69 69 69 69 69 68 68 66 63 59 56 52 47 43 40 37 35 33 32 30 30 34 37 38 40 41 42 45 47
68 69 71 72 73 74 74 74 74 73 73 72 72 71 70 70 70 69 69 69 68 66 62 60 57 54 50 45 42 39 37 36 33 30 31 32 33 35 36 37 41 45
70 72 74 75 75 76 75 75 75 75 75 75 75 75 74 73 73 72 71 71 70 68 63 59 58 56 52 48 45 41 39 40 37 32 30 30 30 30 32 35 40 44
73 75 76 77 78 78 77 77 78 78 79 80 81 81 80 78 77 75 74 73 72 69 64 59 56 54 52 49 46 42 40 41 39 33 29 29 29 29 32 37 40 42
75 77 78 79 79 79 80 81 82 84 85 86 88 88 88 85 82 79 78 76 74 72 67 60 57 55 54 52 48 44 41 39 36 31 28 27 28 30 34 37 38 38
77 79 80 81 81 81 83 84 86 88 90 92 93 93 94 92 89 84 81 79 77 75 70 63 59 58 56 54 51 48 43 36 31 28 27 28 28 31 33 34 34 34
80 81 82 83 83 85 87 88 90 93 95 96 96 97 97 98 95 89 85 82 79 77 74 66 62 60 58 56 53 50 45 40 33 30 29 30 31 32 33 33 33 35
83 84 84 84 86 88 90 92 94 96 98 98 99 99 99 100 99 93 89 86 81 79 77 70 65 63 61 59 57 53 50 47 43 40 39 39 40 40 39 39 40 40
82 84 85 86 87 89 91 94 96 98 100 100 100 100 100 101 100 95 92 91 86 82 80 75 69 65 62 61 60 57 53 51 50 50 51 51 51 51 51 49 49 49
76 81 84 86 89 91 92 94 96 98 100 100 100 100 100 101 100 97 95 94 92 88 85 80 74 69 65 62 61 60 56 52 52 52 53 55 55 56 57 56 56 57
73 76 80 84 88 91 93 94 96 98 99 100 100 100 100 100 100 100 99 98 97 94 91 88 82 76 70 65 62 62 60 57 55 54 54 54 55 56 58 59 61 61
74 75 78 81 84 87 90 93 95 98 100 100 100 100 101 101 100 100 101 100 100 99 97 95 92 86 79 71 64 61 61 61 59 59 59 58 58 60 62 64 66 67
75 77 79 80 82 83 86 88 91 95 98 99 100 100 100 101 101 101 101 101 100 99 98 98 97 93 88 79 70 64 62 62 62 62 62 62 62 62 63 65 68 69
74 77 79 80 81 83 84 85 86 88 91 93 96 98 99 100 100 100 101 102 101 100 98 97 96 94 91 86 77 69 65 64 65 65 64 65 65 63 60 61 64 67
74 77 79 79 80 82 82 84 85 85 86 86 87 90 93 95 97 98 98 99 100 99 98 96 95 92 89 85 80 75 72 69 68 66 66 67 68 67 62 60 62 64
76 78 80 81 82 83 82 83 84 85 86 84 83 84 86 88 90 92 93 95 95 95 93 92 91 88 85 82 79 79 78 76 74 72 70 70 71 70 67 63 62 64
75 76 78 81 85 86 85 85 85 85 85 84 82 82 83 84 85 85 87 89 90 91 91 89 87 86 85 83 81 80 80 79 80 79 78 76 75 75 72 67 63 64
72 73 75 78 81 84 86 88 87 86 87 87 85 82 82 84 85 84 83 83 83 85 86 86 86 86 86 87 86 84 83 83 83 84 84 83 82 81 80 76 70 69
68 69 71 74 77 78 81 86 89 89 88 90 90 88 87 88 87 85 83 83 83 82 80 80 80 81 84 86 88 88 87 88 88 87 86 86 85 85 85 84 81 78
66 67 68 71 74 75 77 81 86 89 89 91 92 92 91 92 92 88 84 83 85 86 83 78 76 76 78 79 82 85 86 87 88 89 89 88 87 86 87 88 89 88
65 66 67 69 72 73 74 76 78 81 84 88 91 92 93 93 94 91 85 82 84 87 86 82 78 76 76 74 73 77 80 82 83 84 86 88 87 87 89 91 92 93
64 65 66 68 71 72 72 72 73 74 76 80 83 87 91 93 93 89 83 82 85 87 86 84 80 79 79 77 74 72 73 76 78 78 79 83 87 89 91 92 94 94
64 65 65 67 71 73 72 72 74 75 75 74 76 79 83 89 92 89 84 83 85 87 86 85 83 83 82 81 79 76 74 74 75 75 75 78 85 90 90 91 93 93
62 64 64 65 67 69 71 73 75 76 76 75 74 73 76 81 85 87 88 90 89 87 88 87 86 86 84 83 82 81 79 78 76 75 74 75 80 86 89 90 92 93
62 62 63 63 64 65 66 69 73 75 75 75 74 73 73 75 78 80 85 90 92 91 92 91 88 87 86 86 83 81 81 81 77 76 75 73 76 83 89 92 93 94